CZ-6A DEB, 54539

Orbit data source: Space-Track

CZ-6A DEB, 54539 is space debris in SSO originally from a launch on Fri, 11 Nov 2022 UTC launched from the Taiyaun Space Center, China (TSC). Debris objects in space refer to the collection of defunct objects orbiting the Earth. Examples of debris include non-operational satellites, rocket bodies, and fragments generated from explosions, collisions, or faulty payload assembly.

Loading next visibility...
Identifier
54539, 2022-151KP
Orbit
SSO
Country
Flag of CNCN / PRC
Related business
Manufacturer
SAST
Mission
Spacecraft
Bus & Motor
Unknown
Mass
Unknown
Launch date (UTC)
2022-11-11 (4 years ago)
Launch vehicle
Unknown
Launch site
Taiyaun Space Center, China (TSC)
Object type
Payload
Rocket body
Debris
Shape & HBR
Unknown shape, 0.3 m
Radar Cross Section
Medium (>0.1 m² and <1 m²)

Expand to show TLE details & history
Last TLE update: 7 hours ago

TLE from 7 hours ago
0 CZ-6A DEB
1 54539U 22151KP  26235.94364338  .00000037  00000-0  45913-4 0  9991
2 54539  98.8485 233.1382 0047239 135.9784 224.5163 14.09215318194195
Epoch: 2026-08-23T22:38Z
TLE epoch observation values (Epoch: 2026-08-23T22:38:50.788Z)
Latitude
-0°
Longitude
-78.80586°
Altitude
889.425 km
Speed
7.395 km/s
True Right ascension
15h 32m 33s
True Declination
0° 00' 00"
Sunlit
Object was in daylight at epoch
Visualization orbit readout
Latitude
Unknown
Longitude
Unknown
Altitude
Unknown
Speed
Unknown
Apparent Right ascension
Unknown
Apparent Declination
Unknown
Sunlit
N/A
Visualization observer readout
Local Sidereal Time
21:12:27
Azimuth
Unknown
Elevation
Unknown
Doppler factor
Unknown
Orbital elements
Apogee altitude
893.426 km
Perigee altitude
825.049 km
Semi-major axis
7,237.375 km
Eccentricity
0.00472
Inclination
98.8485°
RAAN
233.1382°
Arg. of periapsis
135.9784°
True anomaly
224.13837°
Mean anomaly
224.5163°
Eccentric anomaly
224.32718°
Mean motion
3.5251 °/min
Orbital period
102.12 mins
BSTAR
0.000045913
Loading maneuver chart data...
Computing Atmospheric mass density...
Loading historical data...
Loading historical data...
Loading historical data...
Loading historical data...
Loading historical data...
Loading historical data...
Loading historical data...

Documentation

Showing up to 5 results
|